Total_Precipitation_Accumulation
0.89 0.90 0.82 0.64 0.53 0.48 0.46 0.42 0.30 0.23 0.19 0.18 0.13 0.10 0.13 0.11 0.07 0.08 0.07 0.06 0.06 0.07 0.08 0.08 0.12 0.18 0.16 0.16 0.23 0.27 0.30 0.31 0.28 0.26 0.15 0.09 0.09 0.07 0.09 0.03 0.01 0.01 0.01
0.66 0.61 0.52 0.41 0.38 0.43 0.43 0.34 0.23 0.19 0.17 0.16 0.13 0.08 0.09 0.13 0.12 0.12 0.12 0.08 0.07 0.06 0.04 0.03 0.04 0.08 0.13 0.17 0.23 0.25 0.28 0.31 0.29 0.27 0.22 0.16 0.16 0.12 0.12 0.09 0.06 0.03 0.02
0.59 0.51 0.47 0.43 0.42 0.42 0.36 0.28 0.18 0.17 0.17 0.17 0.19 0.14 0.13 0.14 0.15 0.13 0.12 0.11 0.08 0.05 0.03 0.03 0.02 0.03 0.08 0.13 0.22 0.29 0.32 0.32 0.31 0.25 0.28 0.29 0.22 0.17 0.15 0.10 0.07 0.07 0.06
0.84 0.63 0.51 0.48 0.43 0.37 0.27 0.20 0.17 0.18 0.19 0.17 0.14 0.11 0.13 0.19 0.22 0.17 0.12 0.13 0.08 0.05 0.03 0.02 0.02 0.03 0.05 0.11 0.19 0.32 0.41 0.43 0.41 0.34 0.32 0.33 0.30 0.24 0.18 0.14 0.13 0.11 0.09
0.63 0.42 0.33 0.31 0.29 0.23 0.18 0.13 0.12 0.13 0.13 0.14 0.10 0.09 0.12 0.20 0.22 0.18 0.13 0.10 0.11 0.09 0.06 0.03 0.03 0.03 0.04 0.07 0.11 0.22 0.32 0.42 0.47 0.48 0.43 0.38 0.32 0.26 0.21 0.18 0.15 0.16 0.12
0.32 0.25 0.21 0.17 0.14 0.12 0.12 0.10 0.07 0.07 0.08 0.13 0.12 0.12 0.14 0.16 0.19 0.14 0.15 0.16 0.17 0.16 0.11 0.06 0.05 0.03 0.02 0.03 0.04 0.06 0.11 0.19 0.30 0.39 0.44 0.40 0.40 0.34 0.30 0.24 0.17 0.15 0.13
0.07 0.06 0.06 0.06 0.06 0.05 0.05 0.05 0.05 0.06 0.06 0.08 0.08 0.12 0.14 0.11 0.09 0.07 0.16 0.27 0.26 0.18 0.10 0.07 0.07 0.03 0.02 0.03 0.07 0.07 0.08 0.09 0.10 0.16 0.24 0.30 0.34 0.37 0.29 0.23 0.18 0.16 0.16
0.01 0.01 0.01 0.02 0.03 0.03 0.04 0.04 0.02 0.02 0.03 0.06 0.07 0.13 0.12 0.07 0.05 0.05 0.12 0.20 0.25 0.22 0.12 0.07 0.08 0.08 0.07 0.07 0.06 0.07 0.10 0.12 0.08 0.05 0.12 0.20 0.22 0.28 0.27 0.24 0.21 0.16 0.14
0.00 0.00 0.00 0.00 0.00 0.01 0.01 0.01 0.00 0.00 0.01 0.05 0.07 0.09 0.06 0.02 0.01 0.03 0.07 0.20 0.26 0.25 0.17 0.16 0.16 0.16 0.19 0.13 0.06 0.07 0.12 0.12 0.09 0.06 0.06 0.09 0.11 0.16 0.20 0.24 0.25 0.21 0.19
0.00 0.00 0.00 0.00 0.00 0.00 0.01 0.00 0.00 0.00 0.00 0.01 0.03 0.04 0.03 0.03 0.01 0.01 0.03 0.11 0.17 0.21 0.22 0.23 0.26 0.19 0.20 0.13 0.05 0.16 0.25 0.19 0.12 0.14 0.17 0.19 0.19 0.23 0.27 0.28 0.35 0.36 0.33
0.00 0.00 0.00 0.00 0.00 0.01 0.03 0.02 0.01 0.01 0.00 0.00 0.00 0.00 0.01 0.01 0.01 0.01 0.01 0.03 0.04 0.07 0.12 0.14 0.12 0.10 0.08 0.07 0.07 0.17 0.26 0.15 0.09 0.16 0.24 0.26 0.25 0.22 0.25 0.28 0.32 0.38 0.43
0.00 0.00 0.00 0.01 0.01 0.02 0.05 0.03 0.02 0.01 0.00 0.01 0.01 0.01 0.01 0.01 0.01 0.00 0.00 0.00 0.01 0.02 0.05 0.06 0.04 0.04 0.03 0.04 0.07 0.11 0.13 0.08 0.10 0.14 0.15 0.13 0.14 0.14 0.12 0.13 0.17 0.21 0.24
0.00 0.00 0.00 0.00 0.01 0.02 0.02 0.02 0.02 0.01 0.01 0.01 0.01 0.02 0.03 0.03 0.02 0.00 0.00 0.00 0.00 0.01 0.01 0.01 0.01 0.01 0.01 0.03 0.04 0.06 0.09 0.12 0.15 0.14 0.13 0.08 0.06 0.06 0.06 0.08 0.11 0.13 0.14
0.00 0.00 0.00 0.00 0.01 0.02 0.01 0.01 0.01 0.01 0.01 0.01 0.02 0.02 0.04 0.06 0.02 0.00 0.01 0.01 0.02 0.02 0.02 0.03 0.02 0.02 0.03 0.05 0.07 0.09 0.11 0.15 0.16 0.16 0.11 0.07 0.05 0.05 0.06 0.08 0.09 0.09 0.10
0.00 0.00 0.00 0.00 0.01 0.02 0.01 0.00 0.00 0.00 0.00 0.01 0.01 0.02 0.02 0.02 0.01 0.01 0.01 0.02 0.04 0.04 0.05 0.09 0.14 0.18 0.16 0.15 0.17 0.16 0.19 0.17 0.15 0.15 0.14 0.12 0.11 0.11 0.09 0.06 0.04 0.05 0.06
0.00 0.00 0.00 0.00 0.01 0.01 0.02 0.01 0.00 0.00 0.01 0.00 0.00 0.01 0.01 0.00 0.01 0.03 0.06 0.06 0.06 0.05 0.09 0.12 0.23 0.33 0.31 0.31 0.29 0.29 0.30 0.26 0.23 0.19 0.16 0.14 0.12 0.10 0.10 0.08 0.06 0.07 0.09
0.00 0.00 0.00 0.00 0.00 0.00 0.01 0.02 0.02 0.01 0.00 0.00 0.00 0.00 0.00 0.01 0.02 0.03 0.05 0.08 0.10 0.15 0.14 0.18 0.35 0.39 0.33 0.32 0.34 0.33 0.28 0.21 0.17 0.13 0.09 0.06 0.04 0.03 0.04 0.05 0.05 0.05 0.04
0.00 0.00 0.00 0.00 0.00 0.00 0.00 0.00 0.01 0.03 0.04 0.03 0.01 0.00 0.00 0.00 0.01 0.02 0.03 0.07 0.12 0.17 0.20 0.31 0.44 0.46 0.39 0.30 0.22 0.16 0.12 0.08 0.06 0.04 0.02 0.02 0.01 0.01 0.01 0.01 0.01 0.01 0.01
0.00 0.00 0.00 0.00 0.00 0.00 0.00 0.00 0.00 0.01 0.01 0.02 0.03 0.01 0.01 0.01 0.01 0.01 0.02 0.05 0.07 0.09 0.15 0.24 0.32 0.37 0.30 0.15 0.06 0.03 0.02 0.02 0.02 0.01 0.01 0.01 0.01 0.01 0.01 0.01 0.01 0.01 0.01
0.00 0.00 0.00 0.00 0.00 0.00 0.00 0.00 0.00 0.00 0.01 0.01 0.01 0.01 0.02 0.02 0.02 0.01 0.01 0.02 0.03 0.04 0.04 0.07 0.09 0.09 0.05 0.02 0.01 0.01 0.00 0.00 0.00 0.00 0.00 0.01 0.01 0.01 0.01 0.02 0.02 0.03 0.03
0.00 0.00 0.00 0.00 0.00 0.00 0.00 0.01 0.01 0.01 0.01 0.01 0.00 0.00 0.00 0.01 0.01 0.01 0.01 0.01 0.01 0.01 0.01 0.01 0.01 0.01 0.00 0.00 0.00 0.00 0.00 0.00 0.00 0.00 0.01 0.01 0.01 0.01 0.02 0.02 0.02 0.02 0.02
0.00 0.00 0.00 0.00 0.00 0.00 0.00 0.00 0.01 0.01 0.01 0.01 0.01 0.00 0.00 0.01 0.01 0.01 0.01 0.01 0.01 0.01 0.01 0.01 0.00 0.00 0.00 0.00 0.00 0.00 0.00 0.00 0.00 0.00 0.01 0.01 0.01 0.01 0.01 0.01 0.01 0.01 0.01
0.00 0.00 0.00 0.00 0.00 0.00 0.00 0.00 0.00 0.01 0.01 0.01 0.01 0.01 0.00 0.01 0.01 0.01 0.01 0.01 0.01 0.00 0.00 0.00 0.00 0.00 0.00 0.00 0.00 0.00 0.00 0.00 0.01 0.01 0.01 0.01 0.02 0.02 0.01 0.01 0.01 0.00 0.00
0.00 0.00 0.00 0.00 0.00 0.00 0.00 0.00 0.00 0.00 0.00 0.01 0.01 0.01 0.01 0.01 0.01 0.01 0.01 0.01 0.00 0.00 0.00 0.00 0.00 0.00 0.00 0.00 0.00 0.00 0.00 0.00 0.00 0.01 0.01 0.01 0.02 0.01 0.01 0.01 0.01 0.01 0.00
0.00 0.00 0.00 0.00 0.00 0.00 0.00 0.00 0.00 0.00 0.00 0.00 0.01 0.01 0.01 0.01 0.01 0.01 0.00 0.00 0.00 0.00 0.00 0.00 0.00 0.00 0.00 0.00 0.00 0.00 0.01 0.01 0.01 0.00 0.00 0.01 0.01 0.01 0.01 0.01 0.01 0.00 0.00
0.00 0.00 0.00 0.00 0.00 0.00 0.00 0.00 0.00 0.00 0.00 0.01 0.01 0.01 0.01 0.01 0.01 0.01 0.00 0.00 0.00 0.00 0.00 0.00 0.00 0.00 0.00 0.00 0.00 0.00 0.00 0.00 0.00 0.00 0.00 0.00 0.00 0.00 0.00 0.00 0.00 0.00 0.00